Temp
33 33 34 35 37 37 35 36 37 39 40 39 40 41 42 43 45 47 50 53 51 50 50 48 47 47 46 47 44 44 46 45 43 30 33 32 32 31 30 30 32 31 32
33 33 33 34 35 37 36 36 38 37 38 37 38 39 40 42 42 45 47 48 47 44 40 42 38 40 38 38 41 39 35 35 33 29 29 29 30 31 29 28 29 29 28
32 32 32 31 32 32 32 33 34 35 35 35 36 36 36 37 38 42 41 41 41 39 38 38 37 38 36 36 36 35 35 34 33 31 28 30 30 27 27 26 25 25 27
30 30 29 30 30 31 32 32 32 33 33 33 34 35 35 36 37 36 36 35 35 34 35 35 36 36 35 35 35 35 34 33 33 31 28 26 26 26 25 22 21 23 23
28 28 28 29 30 30 31 31 32 32 32 33 33 33 33 34 35 36 36 35 34 33 33 33 34 34 36 36 35 33 33 32 30 27 24 24 22 22 23 23 21 21 21
27 26 28 28 29 29 30 31 31 32 33 33 33 33 33 34 39 38 36 34 34 34 33 32 33 34 36 37 36 36 35 31 28 27 25 23 22 24 22 23 20 18 17
25 26 27 27 28 28 29 29 30 31 32 32 32 33 32 33 36 36 35 34 33 32 32 31 31 32 33 33 35 34 33 34 33 30 26 25 23 24 23 22 21 19 17
24 25 26 27 27 28 28 28 29 30 30 30 31 32 32 32 34 33 33 31 29 29 30 30 29 28 30 30 28 26 26 27 28 29 28 26 27 26 26 23 19 15 12
25 25 25 26 26 26 26 27 28 28 29 29 30 30 31 31 33 33 32 29 28 27 28 28 28 28 31 31 28 26 26 27 32 33 32 32 31 29 25 20 5 8 2
24 25 26 27 26 26 26 26 27 28 28 29 29 30 30 31 33 33 32 30 27 26 27 28 31 31 32 32 27 25 22 24 25 24 25 27 27 27 26 18 14 5 -1
26 26 26 27 27 27 26 27 27 27 27 27 27 28 29 30 31 33 34 30 28 27 26 27 29 33 32 31 28 24 23 23 22 17 16 15 15 15 14 15 14 10 -0
24 25 26 26 27 27 26 26 26 26 26 25 26 26 27 30 33 34 34 32 31 26 24 26 28 32 32 30 27 30 26 19 14 12 11 9 10 9 9 9 9 8 9
21 21 24 25 26 27 26 26 25 25 25 24 24 23 23 23 26 33 33 32 30 25 25 30 32 31 32 30 30 27 15 12 9 7 6 4 5 6 4 -1 0 2 2
16 18 20 23 24 25 25 25 23 21 21 21 21 21 19 20 20 21 22 26 29 27 27 19 25 25 26 23 20 14 10 8 6 4 -0 -1 -0 -2 -2 0 -1 -1 -4
14 16 17 18 20 21 22 22 21 20 20 16 11 14 14 14 19 25 21 19 18 21 13 10 9 8 8 8 5 2 2 2 2 -3 -3 -3 -2 -1 -0 -2 -1 -6 -5
15 15 13 14 13 16 17 20 32 31 31 30 28 22 18 28 30 30 30 30 29 25 6 3 3 4 6 2 1 -1 -3 -2 -2 -4 -6 -3 -2 -1 -1 -4 -4 -6 -6
12 12 11 13 12 12 11 13 21 26 31 32 31 31 30 30 30 30 30 31 29 18 1 -1 2 5 1 1 1 -1 -1 -1 -5 -2 -2 -3 -4 -6 -5 -5 -4 -5 -5
7 12 11 11 10 9 9 9 10 12 12 9 20 26 30 31 31 30 30 24 14 8 -2 -1 0 1 0 1 -1 -2 -4 -6 -5 -2 -3 -4 -4 -5 -9 -6 -2 -4 -7
9 10 10 8 8 10 9 8 7 6 5 4 14 17 11 27 31 31 31 8 6 1 -2 -3 -3 -2 -1 -1 1 -1 -1 -1 -2 -5 -4 -2 -3 -5 -5 -1 2 3 -0
9 11 10 8 6 6 7 7 5 5 3 3 10 10 2 7 8 7 6 5 3 6 5 6 4 2 2 1 -0 -1 -4 -6 -3 -2 0 2 3 2 2 3 4 4 3
14 11 11 6 7 9 8 10 8 3 4 2 6 7 18 7 9 6 5 4 6 8 9 9 7 6 5 4 3 2 2 4 2 3 4 5 6 3 5 6 6 5 5
12 12 10 12 10 6 6 4 4 12 18 18 20 19 26 24 19 17 13 11 11 12 12 11 10 9 9 8 7 7 7 7 8 8 8 9 8 7 7 6 6 5 4
10 9 6 3 5 5 3 5 10 19 21 22 22 21 21 21 21 21 21 19 9 9 11 12 12 8 8 9 9 11 11 10 12 12 10 9 8 7 6 6 5 5 4
10 10 10 7 4 5 7 16 21 23 23 23 23 22 22 22 21 19 12 11 10 6 4 9 9 9 6 9 10 13 14 14 13 12 11 9 8 7 7 6 6 6 5
14 12 13 12 11 13 20 22 23 24 23 23 23 22 22 19 14 4 1 -1 -1 -1 3 1 4 6 9 12 13 12 13 15 13 12 11 9 8 7 6 6 5 5 5
18 18 18 17 18 21 23 24 24 24 23 23 22 19 15 13 3 -2 -2 -2 -1 0 2 3 8 11 11 12 12 13 13 14 12 11 9 8 7 6 6 5 4 2 2
MSLP
1007.19 1006.04 1004.84 1003.59 1002.25 1001.38 1001.27 1000.97 1000.67 1000.42 1000.26 1000.26 1000.15 1000.22 1000.06 999.93 999.82 999.82 999.65 999.40 999.79 1000.64 1001.73 1002.23 1002.44 1003.03 1004.46 1005.05 1006.16 1007.21 1008.24 1009.24 1010.25 1013.88 1014.83 1016.44 1017.07 1017.93 1019.24 1020.03 1020.74 1021.71 1022.89
1006.74 1005.57 1004.34 1003.24 1002.09 1000.86 1000.18 999.83 999.53 999.34 999.31 999.44 999.49 999.61 999.63 999.44 999.32 999.26 998.93 998.47 999.32 1000.34 1001.31 1002.01 1002.85 1002.98 1004.40 1005.69 1006.34 1007.04 1008.37 1009.33 1009.91 1012.65 1014.67 1015.93 1016.97 1017.88 1018.91 1019.96 1020.96 1021.80 1022.88
1006.44 1005.35 1004.20 1003.17 1002.05 1000.93 1000.07 999.39 998.88 998.65 998.68 998.71 998.84 998.86 999.00 998.96 998.62 998.34 997.95 998.48 999.15 1000.19 1000.80 1001.85 1002.50 1002.87 1004.70 1005.95 1006.95 1007.81 1008.70 1009.39 1010.60 1012.43 1014.50 1016.17 1017.06 1018.01 1019.25 1020.48 1021.33 1022.31 1023.20
1006.62 1005.60 1004.50 1003.40 1002.28 1001.12 1000.06 999.22 998.62 998.20 998.07 998.04 998.06 997.90 997.78 997.79 997.62 997.63 997.75 998.83 999.56 999.93 1001.98 1002.48 1002.84 1003.18 1004.90 1005.93 1007.14 1007.88 1008.66 1009.70 1010.81 1012.49 1014.14 1015.78 1017.14 1018.35 1019.09 1020.30 1021.68 1022.62 1023.47
1006.94 1005.88 1004.80 1003.71 1002.58 1001.40 1000.39 999.59 998.87 998.28 997.86 997.66 997.55 997.26 997.29 997.25 997.22 997.37 998.02 998.86 999.92 1001.20 1002.06 1003.85 1003.87 1004.21 1004.83 1006.26 1007.08 1008.12 1008.96 1009.97 1011.16 1012.65 1014.25 1015.80 1017.25 1018.30 1018.74 1020.20 1021.35 1022.66 1023.51
1007.49 1006.48 1005.40 1004.23 1002.99 1001.90 1000.97 1000.24 999.56 998.88 998.42 998.10 998.02 997.87 997.75 997.74 997.82 997.54 998.27 999.36 1000.82 1001.25 1003.30 1003.83 1005.40 1005.21 1006.20 1007.02 1007.49 1008.55 1008.90 1009.68 1011.36 1012.62 1014.02 1015.07 1016.72 1017.78 1019.00 1020.00 1021.35 1022.81 1023.68
1008.06 1007.10 1006.10 1005.04 1003.89 1002.90 1002.05 1001.23 1000.66 1000.18 999.74 999.24 999.09 998.97 998.93 999.30 999.46 999.25 999.04 1000.63 1001.55 1000.96 1004.13 1005.17 1005.65 1006.20 1007.37 1007.99 1008.76 1009.61 1010.20 1010.92 1011.63 1012.18 1013.53 1014.82 1016.26 1017.22 1018.59 1020.23 1021.27 1022.00 1023.05
1008.55 1007.68 1006.95 1005.93 1004.90 1004.24 1003.45 1002.87 1002.30 1001.83 1001.20 1000.76 1000.32 1000.48 1000.31 1000.30 1000.06 1000.81 999.98 1001.64 1001.97 1003.55 1005.01 1005.71 1006.35 1007.35 1008.38 1008.79 1009.75 1010.67 1011.61 1012.06 1012.77 1013.53 1014.17 1015.07 1015.88 1017.19 1018.14 1019.39 1020.89 1022.47 1023.50
1009.10 1008.41 1007.70 1007.05 1006.08 1005.47 1004.87 1004.46 1003.99 1003.34 1002.93 1002.63 1002.18 1001.60 1001.36 1001.49 1001.30 1001.70 1001.92 1002.10 1004.05 1005.72 1006.64 1007.00 1007.74 1008.39 1009.25 1009.54 1010.29 1011.23 1011.98 1012.77 1013.49 1014.02 1014.79 1015.67 1016.62 1017.69 1018.41 1019.50 1021.47 1022.80 1024.19
1009.88 1009.29 1008.60 1007.95 1007.33 1006.74 1006.29 1005.78 1005.38 1004.96 1004.64 1004.58 1004.32 1004.29 1004.25 1004.13 1003.95 1003.90 1003.83 1004.33 1005.74 1006.63 1007.43 1008.09 1008.40 1009.47 1010.13 1010.68 1010.77 1011.61 1012.34 1013.85 1014.28 1015.22 1015.94 1016.87 1017.38 1017.87 1018.72 1019.64 1020.84 1022.24 1024.30
1010.71 1010.00 1009.30 1008.75 1008.34 1007.94 1007.52 1007.07 1006.74 1006.30 1005.87 1005.46 1005.57 1005.75 1005.73 1005.85 1006.03 1005.88 1006.12 1006.05 1006.89 1007.81 1007.75 1008.99 1010.05 1010.89 1011.18 1011.29 1011.45 1012.70 1013.15 1014.53 1015.47 1016.55 1017.36 1018.11 1018.72 1019.20 1020.03 1020.50 1020.86 1021.87 1023.46
1011.22 1010.68 1010.09 1009.57 1009.16 1008.90 1008.61 1008.42 1008.12 1007.71 1007.52 1007.41 1007.29 1007.27 1007.36 1007.30 1007.29 1007.59 1008.56 1009.24 1008.65 1008.18 1009.47 1010.15 1010.94 1011.69 1012.26 1012.24 1013.01 1013.77 1014.66 1015.74 1016.66 1017.95 1018.66 1019.19 1019.82 1020.57 1020.94 1021.33 1022.22 1022.84 1022.81
1011.91 1011.52 1011.05 1010.57 1010.07 1009.69 1009.62 1009.52 1009.27 1009.05 1008.86 1008.87 1008.73 1008.97 1009.45 1009.76 1009.81 1009.91 1009.73 1008.30 1008.80 1009.76 1010.68 1010.99 1011.86 1012.72 1013.01 1013.55 1014.25 1015.01 1016.10 1016.74 1017.95 1018.92 1019.90 1020.41 1020.63 1021.05 1021.79 1022.70 1022.99 1023.35 1023.65
1012.81 1012.54 1012.13 1011.59 1011.33 1010.96 1010.71 1010.66 1010.64 1010.68 1010.58 1010.65 1010.95 1011.23 1011.09 1010.60 1010.31 1010.00 1009.89 1010.07 1010.77 1011.61 1012.20 1012.86 1013.69 1014.01 1014.20 1014.92 1015.81 1016.88 1017.43 1018.10 1018.92 1019.77 1020.42 1020.61 1021.05 1021.53 1022.06 1022.57 1023.23 1023.63 1024.16
1013.33 1013.27 1013.09 1012.81 1012.53 1012.27 1012.05 1011.89 1011.75 1011.82 1011.75 1011.94 1012.23 1012.31 1012.42 1012.43 1012.31 1012.23 1012.26 1012.65 1012.89 1013.00 1013.65 1014.57 1015.12 1015.95 1016.58 1017.06 1017.89 1018.31 1018.56 1018.87 1019.57 1020.07 1020.67 1021.25 1021.70 1022.12 1022.56 1022.75 1023.09 1023.87 1024.35
1013.74 1013.75 1013.67 1013.51 1013.38 1013.24 1013.02 1012.76 1012.35 1012.37 1012.42 1012.48 1012.61 1012.67 1012.83 1012.65 1012.57 1012.57 1012.65 1012.78 1013.12 1013.88 1014.89 1016.06 1016.82 1016.90 1017.31 1018.06 1018.73 1019.16 1019.37 1019.65 1019.93 1020.08 1020.68 1021.21 1021.77 1022.23 1022.64 1023.01 1023.25 1023.86 1024.07
1013.76 1013.88 1013.96 1014.01 1014.06 1013.99 1013.92 1013.85 1013.60 1013.34 1013.07 1012.94 1012.94 1012.93 1012.97 1012.88 1013.02 1013.15 1013.31 1013.57 1014.11 1014.77 1015.73 1016.64 1017.07 1017.56 1018.01 1018.30 1018.54 1018.92 1019.42 1019.47 1019.55 1020.02 1020.60 1021.14 1021.65 1022.17 1022.55 1022.75 1023.01 1023.34 1023.52
1013.88 1013.85 1013.82 1013.83 1013.98 1014.18 1014.24 1014.23 1014.15 1014.11 1014.11 1013.88 1013.61 1013.33 1013.18 1013.08 1013.11 1013.29 1013.52 1014.02 1014.49 1015.50 1016.14 1016.77 1017.21 1017.41 1017.60 1017.84 1018.16 1018.50 1018.91 1019.20 1019.47 1019.73 1020.16 1020.47 1020.98 1021.63 1022.01 1022.13 1022.48 1022.80 1023.02
1013.70 1013.71 1013.76 1013.82 1013.88 1013.93 1014.03 1014.15 1014.21 1014.37 1014.52 1014.49 1014.35 1013.78 1013.56 1013.34 1013.14 1013.20 1013.36 1014.26 1014.74 1015.31 1015.70 1016.07 1016.43 1016.73 1016.94 1017.14 1017.22 1017.52 1017.90 1018.42 1018.76 1019.22 1019.45 1019.74 1020.16 1020.75 1020.87 1021.09 1021.42 1021.73 1022.15
1012.87 1013.18 1013.51 1013.73 1013.92 1014.06 1014.17 1014.31 1014.48 1014.49 1014.52 1014.45 1014.37 1014.21 1014.17 1013.82 1013.75 1013.47 1013.96 1014.43 1014.59 1014.86 1015.20 1015.43 1015.66 1015.95 1016.23 1016.54 1016.82 1017.07 1017.47 1017.96 1018.09 1018.37 1018.53 1018.73 1019.01 1019.39 1019.72 1020.06 1020.48 1020.87 1021.14
1011.78 1012.21 1012.64 1013.20 1013.49 1013.56 1013.58 1013.75 1013.75 1013.98 1014.21 1014.21 1013.97 1013.97 1013.60 1013.75 1013.60 1013.65 1013.91 1014.29 1014.42 1014.47 1014.53 1014.66 1014.77 1014.97 1015.23 1015.46 1015.75 1016.03 1016.29 1016.40 1016.77 1017.09 1017.41 1017.64 1017.97 1018.33 1018.53 1018.86 1019.27 1019.65 1019.96
1011.35 1011.72 1012.16 1012.36 1012.54 1013.05 1013.31 1013.49 1013.65 1013.68 1013.49 1013.35 1013.07 1012.76 1012.57 1012.90 1013.11 1013.22 1013.37 1013.64 1013.56 1013.63 1013.71 1013.88 1014.05 1014.18 1014.36 1014.68 1014.94 1015.24 1015.43 1015.42 1015.54 1015.77 1016.01 1016.31 1016.64 1017.03 1017.40 1017.90 1018.35 1018.82 1019.29
1011.06 1011.45 1011.84 1012.20 1012.48 1012.71 1012.88 1012.85 1012.76 1012.61 1012.46 1012.32 1012.21 1012.17 1012.15 1012.32 1012.57 1012.71 1012.73 1012.86 1012.99 1013.17 1013.32 1013.47 1013.56 1013.60 1013.67 1013.80 1013.96 1014.09 1014.23 1014.18 1014.20 1014.48 1014.86 1015.22 1015.61 1015.96 1016.46 1016.93 1017.47 1018.05 1018.50
1010.48 1010.81 1011.24 1011.63 1012.00 1012.16 1012.29 1012.23 1011.98 1011.75 1011.58 1011.50 1011.53 1011.61 1011.74 1011.85 1012.06 1012.29 1012.69 1012.81 1012.82 1012.78 1012.88 1013.02 1013.07 1013.09 1013.11 1013.11 1013.22 1013.28 1013.30 1013.35 1013.52 1013.79 1014.07 1014.52 1014.97 1015.42 1015.89 1016.36 1016.89 1017.41 1017.90
1009.63 1010.03 1010.36 1010.59 1010.97 1011.33 1011.33 1011.10 1010.95 1010.90 1010.88 1010.90 1010.94 1011.09 1011.32 1011.51 1012.09 1012.52 1012.58 1012.61 1012.59 1012.53 1012.52 1012.70 1012.56 1012.49 1012.49 1012.45 1012.45 1012.61 1012.74 1012.88 1013.18 1013.45 1013.79 1014.13 1014.57 1015.07 1015.57 1016.00 1016.50 1017.01 1017.43
1008.58 1009.12 1009.56 1009.94 1010.13 1010.14 1009.98 1010.17 1010.27 1010.26 1010.40 1010.53 1010.71 1010.99 1011.33 1011.82 1012.25 1012.37 1012.42 1012.40 1012.27 1012.15 1012.10 1012.13 1011.95 1011.98 1012.10 1012.18 1012.27 1012.34 1012.42 1012.60 1012.88 1013.23 1013.60 1014.02 1014.48 1014.90 1015.30 1015.68 1016.14 1016.65 1017.11
Wind_Speed
16 16 16 15 16 11 11 13 14 15 14 13 11 10 11 11 12 12 14 15 16 15 13 12 12 13 10 11 11 11 11 9 9 3 4 6 12 14 12 10 11 9 8
15 15 15 14 13 11 11 12 13 13 11 11 11 11 13 14 12 13 15 12 14 13 9 11 10 9 8 5 6 7 6 1 6 10 6 8 8 12 11 12 8 6 6
15 15 13 12 11 9 8 7 8 8 8 9 10 11 12 15 14 13 9 9 11 13 12 12 11 14 11 9 10 10 8 8 8 8 8 7 7 10 12 8 8 6 6
15 13 12 12 11 10 8 5 4 2 2 3 6 11 10 10 8 9 12 12 13 13 8 9 11 13 14 13 9 10 9 9 10 10 10 9 7 8 8 10 6 3 4
13 12 13 11 10 10 10 9 7 4 3 3 3 4 4 4 6 12 12 14 16 15 14 8 9 12 16 12 9 9 11 9 10 11 10 8 7 10 11 6 5 4 3
12 12 12 12 11 12 12 11 11 10 9 10 9 7 9 5 11 22 20 15 15 17 15 14 11 16 16 18 19 14 13 14 13 9 7 11 10 9 7 8 7 4 4
11 12 12 12 12 13 13 14 13 12 11 12 13 12 14 12 19 22 27 15 14 21 15 14 13 11 15 16 22 22 17 15 9 10 14 11 12 11 10 10 6 3 2
10 11 12 12 13 13 14 14 15 13 13 12 13 12 14 12 26 22 31 17 18 17 14 14 15 13 13 16 15 15 12 10 8 7 8 8 9 10 10 6 5 6 5
11 11 11 11 12 13 14 14 12 12 14 13 12 13 14 14 25 23 20 19 18 16 13 13 14 14 20 21 15 15 14 12 15 20 19 18 21 20 14 10 3 5 2
11 9 9 11 11 12 12 12 11 11 12 11 14 13 13 12 22 21 17 13 15 13 13 14 20 15 20 18 13 13 15 10 12 12 11 15 14 15 14 5 7 5 4
9 9 9 10 11 11 12 11 11 10 11 12 14 14 14 13 16 22 20 11 11 10 11 10 9 18 18 18 16 9 12 12 16 10 9 7 7 7 5 5 5 5 4
6 8 10 10 8 8 10 9 10 9 11 11 12 12 11 13 19 22 21 18 16 13 11 8 9 17 17 18 12 22 21 14 8 7 6 4 5 4 3 5 5 4 3
5 6 7 8 8 8 9 8 7 9 8 9 9 9 8 8 8 19 20 24 23 14 7 15 20 17 18 17 20 19 10 7 6 5 4 2 2 3 5 4 5 5 5
5 5 5 6 7 7 6 6 6 6 6 6 7 7 6 7 7 7 8 10 16 11 14 9 13 13 14 12 9 7 5 4 4 4 3 2 2 3 2 2 2 2 3
3 3 4 4 5 4 4 4 4 3 3 4 2 3 4 4 2 6 6 5 4 9 8 5 5 5 5 5 4 4 3 3 4 2 3 3 2 2 2 1 2 2 2
4 2 1 2 2 3 3 4 12 11 11 9 6 3 0 7 9 9 10 12 15 12 5 3 2 2 4 3 3 2 1 2 2 3 3 3 3 3 3 1 2 3 3
4 3 2 3 2 2 2 3 5 5 9 7 6 6 6 6 7 7 8 10 11 6 4 1 2 3 3 3 4 3 3 3 3 3 4 4 3 2 3 3 2 2 2
3 4 3 3 3 3 3 3 3 2 1 3 5 4 2 4 6 7 8 6 4 3 3 4 4 5 4 5 4 4 4 3 3 3 3 4 4 4 3 3 4 4 3
4 3 3 3 3 3 3 3 2 2 2 1 2 3 4 3 5 7 8 4 4 3 2 2 3 3 4 3 3 3 3 4 4 3 3 5 5 4 4 4 5 7 5
6 6 4 3 1 1 1 3 2 2 2 3 2 3 2 3 2 2 2 2 2 3 3 4 4 4 4 4 4 4 3 3 4 4 5 5 5 6 6 6 6 5 7
5 5 7 3 4 4 4 5 3 2 2 2 4 3 6 3 4 4 3 3 4 4 4 5 4 4 4 5 5 5 5 5 5 5 5 6 6 6 6 6 6 6 5
4 4 4 6 4 4 4 2 3 3 4 4 3 3 8 4 4 4 4 5 5 5 4 4 4 5 5 6 6 6 6 7 6 7 7 7 7 7 7 6 6 5 5
4 4 4 3 3 3 2 3 4 5 5 5 4 3 3 3 4 4 4 3 3 3 3 3 4 3 4 4 4 6 7 7 7 6 6 6 6 6 6 5 5 5 6
5 5 5 4 4 4 4 5 5 7 6 5 4 4 4 3 3 2 2 3 3 3 2 3 3 4 3 4 4 5 6 5 4 6 8 6 6 6 5 5 5 6 5
7 6 6 6 5 5 6 7 6 6 6 5 4 4 3 2 1 2 3 3 3 3 4 3 3 5 7 7 5 6 6 8 6 5 5 6 6 7 6 5 5 4 5
7 7 6 5 6 6 6 6 6 5 5 4 2 2 1 1 2 2 3 3 3 3 4 3 3 4 3 3 3 4 5 6 5 7 5 4 5 5 5 5 7 4 5
Wind_Direction
308 304 299 294 289 255 243 245 247 248 239 237 246 251 245 244 245 243 247 204 199 190 203 197 197 170 184 180 179 181 191 188 162 119 139 158 160 155 150 135 139 130 146
315 310 310 310 311 287 250 244 243 242 235 232 231 238 256 251 246 245 241 187 185 177 170 166 156 133 117 134 158 145 121 101 110 127 127 144 160 151 137 135 136 125 128
321 321 324 324 321 315 302 284 265 244 234 229 232 234 239 246 247 243 173 165 154 160 145 150 145 134 134 138 131 127 116 115 115 134 123 146 142 141 135 122 125 111 152
329 332 333 333 332 332 330 331 323 221 171 208 235 236 227 224 197 143 126 112 101 86 86 110 129 138 143 141 141 143 138 131 127 130 126 131 135 143 133 137 129 122 154
335 339 344 340 345 354 353 357 353 18 62 72 64 67 82 107 151 131 127 123 116 107 91 93 95 112 116 136 138 134 130 122 124 129 132 133 135 154 158 148 123 128 159
343 349 349 352 359 7 9 12 24 28 37 53 48 60 69 59 130 130 121 111 112 108 106 96 98 102 108 115 116 126 138 138 135 134 140 149 152 154 134 145 134 141 184
352 354 358 359 11 17 21 24 20 26 38 52 57 65 74 77 98 109 108 111 110 94 106 106 97 92 101 99 97 97 93 108 121 140 148 153 151 158 145 143 141 102 121
4 4 8 7 15 20 27 28 32 32 36 43 55 63 77 75 88 87 91 88 84 85 90 97 97 99 105 108 100 87 79 80 91 108 122 119 127 139 139 130 113 98 57
11 9 15 16 18 24 28 29 29 40 43 41 45 52 63 70 82 89 90 86 90 87 89 88 100 101 112 111 107 103 93 84 94 106 112 118 133 130 123 113 100 110 60
359 1 12 23 27 27 26 29 30 40 45 48 52 50 57 71 82 87 87 92 101 93 90 90 96 105 110 110 105 109 99 105 109 97 96 99 102 115 110 91 144 123 115
351 2 21 29 35 30 32 25 29 38 45 46 51 46 50 55 71 81 90 84 95 98 86 86 90 104 103 102 98 103 114 117 105 97 94 88 79 83 82 86 80 116 132
359 15 18 26 34 31 35 30 32 35 49 49 54 52 42 51 62 72 86 100 98 95 96 93 92 102 103 101 97 115 113 102 97 99 104 85 98 92 83 78 86 92 77
24 23 23 23 23 24 32 28 29 31 43 43 46 49 43 33 43 64 74 73 75 77 82 103 101 97 99 100 112 115 109 110 120 113 119 100 105 123 105 88 61 70 67
43 31 14 38 32 29 36 35 42 35 45 50 59 59 31 18 20 20 41 72 79 83 90 84 108 99 90 93 84 72 63 70 113 130 144 115 92 91 96 105 108 106 93
64 33 42 38 38 37 36 56 48 36 78 81 47 59 62 42 43 98 107 106 104 106 84 51 51 45 65 68 59 65 79 88 104 124 116 116 91 97 117 122 101 78 139
123 115 74 62 36 50 58 45 68 79 85 96 111 120 254 129 110 109 121 121 123 118 57 105 126 117 120 134 140 123 61 127 132 115 112 138 152 163 155 127 111 156 175
165 164 143 126 120 115 60 66 104 49 49 83 92 104 131 135 121 115 131 144 144 87 88 104 142 161 186 172 167 162 184 195 151 164 161 177 154 158 156 175 159 146 217
188 189 181 184 166 151 155 157 143 155 197 300 3 37 105 162 151 146 151 113 139 54 136 167 181 183 187 187 184 188 194 168 175 185 176 178 173 164 167 183 182 184 182
188 211 204 190 187 185 169 163 158 151 181 237 320 336 3 352 202 197 190 143 181 198 203 207 196 186 199 199 207 199 191 195 187 175 199 194 186 172 208 191 194 195 173
203 211 187 191 196 200 177 170 179 196 203 214 235 240 303 43 13 306 322 141 186 218 202 212 206 203 204 198 201 201 187 193 203 200 210 202 192 189 209 200 199 197 201
194 184 184 179 196 202 196 203 202 177 211 237 251 221 220 189 229 226 239 235 220 225 226 215 215 205 201 200 200 202 209 222 204 212 210 209 193 199 203 203 202 201 191
186 187 186 200 182 186 210 189 185 215 225 228 243 242 252 232 219 233 235 242 234 226 224 223 222 214 208 209 208 212 219 227 218 210 212 206 199 202 194 197 194 189 183
176 173 178 200 188 175 196 207 204 217 231 229 229 227 210 217 229 239 247 249 230 232 218 212 234 218 207 210 200 212 221 227 224 210 206 202 199 200 191 189 185 184 192
181 186 193 191 177 199 199 221 225 229 230 228 219 219 223 228 214 218 266 275 275 261 235 230 223 230 215 217 213 220 228 231 208 208 199 194 195 186 178 179 183 189 192
190 194 198 198 187 197 218 223 223 225 225 221 217 211 204 176 275 265 262 260 258 254 262 245 225 227 241 241 225 214 216 232 205 186 185 180 178 173 174 176 173 184 189
188 195 200 191 206 212 214 222 230 222 220 217 207 125 100 313 260 260 265 269 269 267 266 248 235 245 252 255 255 250 230 225 208 176 159 162 164 168 174 181 181 174 175